Station: Smithton  

  Atmospheric Gas Attenuation - ITU Rec 676-11   ----------------- dB/100km -----------------
Date Time Temp RH % AH g/m3 Dew Point Wind Direction Speed kph Gust kph Barometer mB Rainfall Since 9am 24GHz 47GHz 76GHz 122GHz 134GHz 241GHz
10/05 20:40 9.7 92 8.48 8.5 6 7 1032.9 0 19.5 27.7 42.3 110.9 103.8 356.5
10/05 20:30 10.7 91 8.94 9.3 9 11 1032.8 0 20.4 28.2 43.8 114.7 108.9 374.5
10/05 20:20 11.6 93 9.67 10.5 11 13 1032.8 0 22.0 29.1 46.4 121.7 117.9 406.3
10/05 20:10 11.4 92 9.44 10.1 9 11 1032.8 0 21.5 28.8 45.5 119.4 115.0 395.9
10/05 20:00 11.5 92 9.5 10.2 11 11 1032.7 0 21.6 28.9 45.7 119.9 115.7 398.3
10/05 19:50 11.8 91 9.58 10.4 11 13 1032.7 0 21.8 28.9 45.9 120.4 116.3 400.7
10/05 19:40 12.1 92 9.87 10.8 11 11 1032.6 0 22.4 29.3 47.0 123.3 120.0 413.6
10/05 19:30 12.2 91 9.82 10.8 13 15 1032.5 0 22.3 29.2 46.7 122.5 119.1 410.6
10/05 19:20 12.2 91 9.82 10.8 11 13 1032.4 0 22.3 29.2 46.7 122.5 119.1 410.5
10/05 19:10 11.9 89 9.43 10.1 11 13 1032.3 0 21.4 28.6 45.2 118.4 114.0 392.7
10/05 19:00 12.5 90 9.9 10.9 11 13 1032.2 0 22.4 29.2 46.8 122.9 119.8 412.9
10/05 18:50 12.8 90 10.08 11.2 11 13 1032.1 0 22.8 29.4 47.4 124.5 121.9 420.2
10/05 18:40 12.8 89 9.97 11 13 13 1031.9 0 22.5 29.2 46.9 123.2 120.3 414.6
10/05 18:30 13.1 88 10.04 11.2 13 15 1031.8 0 22.7 29.2 47.1 123.5 120.8 416.5
10/05 18:20 13.4 88 10.23 11.5 13 13 1031.7 0 23.1 29.5 47.7 125.2 123.0 424.3
10/05 18:10 13.6 87 10.24 11.5 15 15 1031.5 0 23.1 29.4 47.6 125.0 122.8 423.6
10/05 18:00 13.8 87 10.37 11.7 15 19 1031.4 0 23.3 29.6 48.0 126.2 124.3 428.9
10/05 17:50 13.8 85 10.13 11.3 13 15 1031.2 0 22.8 29.1 47.0 123.4 120.9 417.0
10/05 17:40 13.9 85 10.19 11.4 15 17 1031.2 0 23.0 29.2 47.2 123.9 121.6 419.4
10/05 17:30 14 83 10.01 11.2 13 15 1031.1 0 22.6 28.9 46.4 121.7 118.9 410.0
10/05 17:20 14.4 81 10.01 11.2 11 13 1031 0 22.5 28.7 46.1 121.1 118.3 407.8
10/05 17:10 14.8 80 10.13 11.4 13 13 1030.9 0 22.8 28.8 46.4 121.8 119.3 411.6
10/05 17:00 15.3 78 10.19 11.5 13 19 1030.9 0 22.9 28.7 46.3 121.7 119.4 411.8
10/05 16:50 15.7 76 10.17 11.5 15 17 1030.9 0 22.8 28.6 46.0 120.8 118.5 408.8
10/05 16:40 16.1 75 10.28 11.7 11 13 1030.9 0 23.0 28.6 46.3 121.4 119.4 411.9
10/05 16:30 16.3 74 10.27 11.7 13 19 1030.8 0 23.0 28.6 46.1 121.0 118.9 410.4
10/05 16:20 16.5 74 10.39 11.9 11 13 1030.8 0 23.2 28.7 46.5 122.0 120.2 415.1
10/05 16:10 16.8 73 10.44 11.9 13 15 1030.8 0 23.3 28.7 46.5 122.1 120.5 415.9
10/05 16:00 16.9 71 10.21 11.6 17 20 1030.8 0 22.8 28.3 45.5 119.4 117.2 404.4
10/05 15:50 17.3 72 10.61 12.2 13 15 1030.8 0 23.7 28.8 46.9 123.2 122.0 421.3
10/05 15:40 17.2 70 10.25 11.7 15 19 1030.6 0 22.9 28.2 45.5 119.4 117.2 404.7
10/05 15:30 17.3 70 10.31 11.8 19 22 1030.5 0 23.0 28.3 45.7 119.9 117.9 407.0
10/05 15:20 17.6 69 10.35 11.8 20 22 1030.5 0 23.1 28.3 45.7 119.9 118.0 407.3
10/05 15:10 17.7 69 10.41 11.9 15 17 1030.4 0 23.2 28.3 45.8 120.4 118.6 409.6
10/05 15:00 17.6 69 10.35 11.9 19 22 1030.3 0 23.1 28.2 45.6 119.8 118.0 407.2
10/05 14:50 17.6 68 10.2 11.6 19 22 1030.3 0 22.8 28.0 45.0 118.2 115.9 400.2
10/05 14:40 17.7 68 10.26 11.7 22 24 1030.2 0 22.9 28.1 45.2 118.7 116.6 402.4
10/05 14:30 17.8 67 10.17 11.6 17 26 1030.2 0 22.7 27.9 44.8 117.6 115.2 397.7
10/05 14:20 17.7 67 10.11 11.5 19 22 1030.3 0 22.6 27.8 44.6 117.1 114.6 395.5
10/05 14:10 18.1 67 10.35 11.9 17 22 1030.3 0 23.1 28.1 45.4 119.1 117.2 404.6
10/05 14:00 18 65 9.98 11.3 19 24 1030.3 0 22.3 27.5 43.9 115.2 112.4 387.9
10/05 13:50 18.2 65 10.1 11.5 19 24 1030.2 0 22.5 27.6 44.3 116.2 113.7 392.5
10/05 13:40 17.9 69 10.53 12.1 15 17 1030.2 0 23.5 28.4 46.2 121.3 119.9 414.1
10/05 13:30 17.8 69 10.47 12 17 22 1030.2 0 23.3 28.4 46.0 120.8 119.3 411.8
10/05 13:20 18 67 10.29 11.8 15 19 1030.2 0 22.9 28.0 45.2 118.6 116.5 402.3
10/05 13:10 18.3 61 9.54 10.7 19 20 1030.2 0 21.3 26.7 42.0 110.1 106.2 366.3
10/05 13:00 18.1 64 9.89 11.2 17 20 1030.2 0 22.1 27.3 43.5 114.1 111.1 383.2
10/05 12:50 17.9 65 9.92 11.2 17 20 1030.3 0 22.2 27.4 43.7 114.7 111.8 385.6
10/05 12:40 18.2 65 10.1 11.5 15 17 1030.3 0 22.5 27.6 44.3 116.2 113.7 392.5
10/05 12:30 18.2 64 9.95 11.3 15 19 1030.4 0 22.2 27.4 43.7 114.6 111.7 385.6
10/05 12:20 18 64 9.83 11.1 17 17 1030.4 0 22.0 27.3 43.3 113.6 110.4 381.0
10/05 12:10 18.2 63 9.79 11 13 13 1030.5 0 21.9 27.2 43.1 112.9 109.6 378.3
10/05 12:00 18.4 64 10.07 11.5 9 15 1030.6 0 22.5 27.5 44.1 115.7 113.1 390.2
10/05 11:50 18 67 10.29 11.8 9 11 1030.6 0 22.9 28.0 45.2 118.6 116.6 402.4
10/05 11:40 17.6 70 10.5 12.1 6 7 1030.7 0 23.4 28.5 46.3 121.5 120.0 414.4
10/05 11:30 17 71 10.27 11.7 7 9 1030.7 0 23.0 28.3 45.7 119.9 117.8 406.7
10/05 11:20 16.9 74 10.64 12.2 6 7 1030.8 0 23.7 29.0 47.3 124.2 123.0 424.9
10/05 11:10 16.2 75 10.34 11.8 7 9 1030.7 0 23.1 28.7 46.4 121.9 120.0 414.2
10/05 11:00 15.9 77 10.43 11.9 9 11 1030.7 0 23.4 28.9 47.0 123.4 121.7 420.2
10/05 10:50 15.5 79 10.44 11.9 9 11 1030.6 0 23.4 29.1 47.3 124.2 122.5 422.8
10/05 10:40 14.9 79 10.07 11.3 11 11 1030.7 0 22.6 28.7 46.1 120.9 118.3 408.0
10/05 10:30 14.7 80 10.07 11.3 9 11 1030.6 0 22.7 28.7 46.2 121.2 118.6 409.1
10/05 10:20 14.5 82 10.2 11.5 9 9 1030.5 0 22.9 29.0 46.8 123.0 120.7 416.4
10/05 10:10 14 82 9.89 11 13 15 1030.5 0 22.3 28.6 45.8 120.3 117.2 403.9
10/05 10:00 13.7 83 9.83 10.9 15 19 1030.5 0 22.2 28.6 45.7 120.1 116.8 402.6
10/05 09:50 13.4 85 9.88 10.9 15 17 1030.6 0 22.3 28.8 46.1 121.1 117.9 406.6
10/05 09:40 13.1 87 9.93 11 11 13 1030.5 0 22.4 29.0 46.5 122.1 119.1 410.6
10/05 09:30 12.8 88 9.86 10.9 17 22 1030.4 0 22.3 29.0 46.4 121.8 118.6 408.7
10/05 09:20 12.7 90 10.02 11.1 15 17 1030.3 0 22.7 29.3 47.1 123.8 121.0 417.2
10/05 09:10 12.2 91 9.82 10.8 19 20 1030.3 0 22.3 29.1 46.6 122.3 118.9 409.9
10/05 09:00 11.9 93 9.85 10.8 11 13 1030.3 0 22.3 29.3 46.9 123.1 119.8 412.9
10/05 08:50 11.3 94 9.59 10.4 11 11 1030.2 0 21.8 29.0 46.1 121.0 117.0 403.1
10/05 08:40 10.8 94 9.29 9.9 11 13 1030.1 0 21.2 28.6 45.1 118.3 113.5 390.6
10/05 08:30 10.2 94 8.95 9.3 7 9 1030 0 20.5 28.2 43.9 115.2 109.5 376.6
10/05 08:20 9.9 94 8.78 9 11 13 1029.8 0 20.2 28.0 43.4 113.7 107.5 369.5
10/05 08:10 9.4 94 8.5 8.5 13 15 1029.6 0 19.6 27.7 42.4 111.2 104.2 357.9
10/05 08:00 9 94 8.29 8.1 15 19 1029.3 0 19.1 27.4 41.7 109.3 101.7 349.3
10/05 07:50 8.7 94 8.13 7.8 17 17 1029.1 0 18.8 27.2 41.2 107.9 99.8 342.7
10/05 07:40 8.4 94 7.98 7.5 15 17 1029.2 0 18.5 27.1 40.7 106.6 98.1 336.6
10/05 07:30 8.2 94 7.88 7.3 15 17 1029.1 0 18.3 27.0 40.4 105.7 97.0 332.5
10/05 07:20 7.9 94 7.72 7 15 15 1028.9 0 18.0 26.8 39.8 104.3 95.1 325.9
10/05 07:10 8.1 93 7.74 7 13 15 1028.8 0 18.0 26.8 39.8 104.2 95.1 326.0
10/05 07:00 8.4 94 7.98 7.5 15 19 1028.7 0 18.5 27.1 40.7 106.5 98.1 336.5
10/05 06:50 8.3 94 7.93 7.4 17 17 1028.5 0 18.4 27.0 40.5 106.1 97.5 334.4
10/05 06:40 8.3 94 7.93 7.4 19 19 1028.5 0 18.4 27.0 40.5 106.1 97.5 334.4
10/05 06:30 8.4 94 7.98 7.5 19 20 1028.5 0 18.5 27.1 40.7 106.5 98.1 336.4
10/05 06:20 8.3 94 7.93 7.4 19 20 1028.5 0 18.4 27.0 40.5 106.1 97.5 334.4
10/05 06:10 8.1 93 7.74 7 17 17 1028.4 0 18.0 26.7 39.8 104.2 95.1 325.9
10/05 06:00 8.1 93 7.74 7 15 19 1028.3 0 18.0 26.7 39.8 104.1 95.1 325.9
10/05 05:50 8.3 93 7.84 7.2 15 15 1028.2 0 18.2 26.8 40.1 105.0 96.2 329.9
10/05 05:40 8.2 93 7.79 7.1 17 17 1028.1 0 18.1 26.8 39.9 104.6 95.6 327.9
10/05 05:30 8.5 93 7.94 7.4 15 17 1028 0 18.4 26.9 40.4 105.8 97.3 333.9
10/05 05:20 8.8 93 8.1 7.7 17 17 1027.9 0 18.7 27.1 41.0 107.2 99.2 340.4
10/05 05:10 8.8 92 8.01 7.6 17 19 1027.7 0 18.5 27.0 40.6 106.2 97.9 336.0
10/05 05:00 9.2 93 8.31 8.1 17 20 1027.6 0 19.2 27.3 41.6 109.1 101.6 348.9
10/05 04:50 9.4 93 8.41 8.3 19 24 1027.5 0 19.4 27.5 41.9 109.9 102.7 352.9
10/05 04:40 9.4 93 8.41 8.3 20 22 1027.4 0 19.4 27.4 41.9 109.9 102.7 352.9
10/05 04:30 8.9 93 8.15 7.8 19 20 1027.4 0 18.8 27.2 41.1 107.6 99.7 342.3
10/05 04:20 8.5 92 7.86 7.3 19 20 1027.4 0 18.2 26.8 40.1 104.9 96.2 329.8
10/05 04:10 8.9 92 8.06 7.7 19 20 1027.3 0 18.7 27.0 40.7 106.6 98.5 337.9

Last Refresh: 10-May-2026 20:23:43

Bureau of Meteorology